This demonstration page uses our WeatherBlox Daily Observations layout. Learn more.

Left ArrowRight Arrow

Hourly Observations for February 12, 2016

Temp ( °F °C ) Dew Point ( °F °C ) Humidity (%) Winds ( mph kmh ) Pressure ( in mb ) Visibility ( mi km ) Precip ( " mm )
12:53 am 00:53 Clear 49 9.4 43 6.1 80 80 Calm 30.18 1022 10 16 0.00 0.00
1:53 am 01:53 Clear 48 8.9 43 6.1 83 83 Calm 30.19 1022 10 16 0.00 0.00
2:53 am 02:53 Clear 47 8.3 42 5.6 83 83 Calm 30.19 1022 10 16 0.00 0.00
3:53 am 03:53 Clear 45 7.2 41 5 86 86 Calm 30.19 1022 10 16 0.00 0.00
4:53 am 04:53 Clear 45 7.2 40 4.4 83 83 Calm 30.19 1022 10 16 0.00 0.00
5:53 am 05:53 Clear 45 7.2 40 4.4 83 83 Calm 30.19 1023 10 16 0.00 0.00
6:53 am 06:53 Clear 45 7.2 40 4.4 83 83 Calm 30.20 1023 10 16 0.00 0.00
7:53 am 07:53 Sunny 47 8.3 41 5 80 80 Calm 30.21 1023 9 14 0.00 0.00
8:53 am 08:53 Sunny 54 12.2 43 6.1 67 67 NW 3 6 30.22 1024 10 16 0.00 0.00
9:53 am 09:53 Mostly Cloudy 60 15.6 46 7.8 60 60 Calm 30.23 1024 10 16 0.00 0.00
10:53 am 10:53 Sunny 63 17.2 46 7.8 54 54 Calm 30.22 1023 10 16 0.00 0.00
11:53 am 11:53 Sunny 66 18.9 46 7.8 49 49 W 6 9 30.19 1023 10 16 0.00 0.00
12:53 pm 12:53 Sunny 67 19.4 44 6.7 44 44 W 6 9 30.16 1022 10 16 0.00 0.00
1:53 pm 13:53 Sunny 68 20 45 7.2 44 44 W 5 7 30.14 1021 10 16 0.00 0.00
2:53 pm 14:53 Sunny 69 20.6 45 7.2 42 42 Calm 30.14 1021 10 16 0.00 0.00
3:53 pm 15:53 Sunny 69 20.6 49 9.4 49 49 E 5 7 30.14 1021 10 16 0.00 0.00
4:53 pm 16:53 Sunny 66 18.9 49 9.4 54 54 ESE 5 7 30.14 1021 10 16 0.00 0.00
5:53 pm 17:53 Clear 64 17.8 49 9.4 58 58 Calm 30.14 1021 10 16 0.00 0.00
6:53 pm 18:53 Clear 59 15 48 8.9 67 67 Calm 30.16 1021 10 16 0.00 0.00
7:53 pm 19:53 Clear 57 13.9 48 8.9 72 72 Calm 30.16 1022 10 16 0.00 0.00
8:53 pm 20:53 Clear 56 13.3 47 8.3 72 72 Calm 30.18 1022 10 16 0.00 0.00
9:53 pm 21:53 Clear 53 11.7 46 7.8 77 77 Calm 30.19 1022 10 16 0.00 0.00
10:53 pm 22:53 Clear 51 10.6 45 7.2 80 80 N 3 6 30.20 1023 10 16 0.00 0.00
11:53 pm 23:53 Clear 51 10.6 44 6.7 77 77 NNE 3 6 30.21 1023 10 16 0.00 0.00

Powered by AerisWeather